Regional Weather Roundup
Issued by NWS

Home | Current Version | Previous Version | Text Only | Print | Product List | Glossary On
Versions: 1 2 3 4 5 6 7 8 9 10 11 12 13 14 15 16 17 18 19 20 21 22 23 24 25 26 27 28 29 30 31 32 33 34 35 36 37 38 39 40 41 42 43 44 45 46 47 48 49 50
000
ASUS45 KCYS 132110
RWRWY

WYOMING REGIONAL WEATHER ROUNDUP
NATIONAL WEATHER SERVICE CHEYENNE WY
300 PM MDT SUN JUL 13 2014

NOTE:  "FAIR" INDICATES FEW OR NO CLOUDS BELOW 12,000 FEET
WITH NO SIGNIFICANT WEATHER AND/OR OBSTRUCTIONS TO VISIBILITY.

WYZ001-132200-
YELLOWSTONE NATIONAL PARK

CITY           SKY/WX    TMP DP  RH WIND       PRES   REMARKS
LK YELLOWSTONE   N/A     69  45  41 CALM      30.50S
W YELLOWSTONE  NOT AVBL

$$
WYZ002>013-054>058-071-098>099-132200-
NORTHERN WYOMING

CITY           SKY/WX    TMP DP  RH WIND       PRES   REMARKS
JACKSON        NOT AVBL
CODY           SUNNY     82  46  28 E8        30.28F
GREYBULL       NOT AVBL
WORLAND        NOT AVBL
SHERIDAN       NOT AVBL
BUFFALO        MOSUNNY   80  45  28 N13G25    30.28S
GILLETTE       SUNNY     87  38  17 NW13G26   30.19F
HULETT         FAIR      81  46  30 MISG      30.22
NEWCASTLE      FAIR      84  37  18 MISG      30.18

$$
WYZ014>020-022>026-101>103-132200-
CENTRAL WYOMING

CITY           SKY/WX    TMP DP  RH WIND       PRES   REMARKS
BIG PINEY      NOT AVBL
PINEDALE       CLEAR     81  36  19 NW14      30.40F
DUBOIS         FAIR      77  43  29 SE10G21   30.39F
LANDER         NOT AVBL
RIVERTON       NOT AVBL
CASPER         PTSUNNY   84  43  23 N9        30.26F
DOUGLAS        MOSUNNY   89  42  19 NW17G24   30.23F

$$
WYZ021-027>030-104>119-132200-
SOUTHERN WYOMING

CITY           SKY/WX    TMP DP  RH WIND       PRES   REMARKS
EVANSTON       NOT AVBL
KEMMERER       CLEAR     82  36  18 NW7       30.40F
ROCK SPRINGS   NOT AVBL
DIXON          FAIR      88  41  18 NW17G23   30.34F
RAWLINS        MOSUNNY   85  43  22 NW14G20   30.36S
SARATOGA       FAIR      79  45  29 N8G16     30.38F
LARAMIE        MOSUNNY   74  53  48 NE18      30.38F
CHEYENNE       PTSUNNY   68  54  60 E7        30.34F
TORRINGTON     PTSUNNY   83  57  41 SE6       30.18F

$$


USA.gov is the U.S. government's official web portal to all federal, state and local government web resources and services.